sat.trackr.live / text

‹ back to catalog

QIANFAN-157

NORAD 69116 · 2026-108N

PAYLOAD ACTIVE UNKNOWN

§ Identity

Operator
Country
PRC
Launch date
2026-05-17
Launch site
WSC
Launch vehicle
Mass (kg)
RCS (m²)

External: N2YO · Heavens-Above · Gunter

§ Orbital elements

Epoch: 2026-09-20T02:54:21.309408Z

Period
106.59 min
Inclination
89.0190°
Eccentricity
0.0002110
Mean motion
13.51028495 rev/d
Perigee alt
1,066.9 km
Apogee alt
1,070.0 km
Semi-major
7,446.6 km
B*
1.6557e-4
RAAN
12.4705°
Arg perigee
111.2022°
Mean anomaly
248.9355°
Rev number
1,731

§ Raw data

QIANFAN-1571 69116U 26108N   26263.12107997  .00000119  00000+0  16557-3 0  99922 69116  89.0190  12.4705 0002110 111.2022 248.9355 13.51028495 17310

JSON: /api/v1/satellites/69116 · /tle

For live sub-satellite position, see the globe view (requires WebGL).

§ Visibility from observer

Set your observer location to see the next 7 days of passes ≥ 10°. The values pass through the URL so the page stays shareable.

No JS? Fill the form by hand. The geolocation button needs JavaScript.